[Date Prev][Date Next][Thread Prev][Thread Next] - [Date Index][Thread Index][Author Index]
2 Line ISS Keps 8-10
- Subject: [sarex] 2 Line ISS Keps 8-10
- From: "Dave Larsen PhD" <doc@xxxxxxxxxxx>
- Date: Fri, 10 Aug 2001 06:20:36 -0700
ISS
1 25544U 98067A 01222.06629381 .00022081 00000-0 29176-3 0 3245
2 25544 51.6394 176.8792 0011528 356.6599 103.0358 15.58206821155492
----
Via the sarex mailing list at AMSAT.ORG courtesy of AMSAT-NA.
To unsubscribe, send "unsubscribe sarex" to Majordomo@amsat.org
AMSAT Home